Location: Newark
(43.0000°N, 1.6781°W)
Time: 16:03:06
(UTC+00:00)

SO-50 - Pass Details

Date: 08 December 2022
Orbit: 584 x 695 km, 64.6° (Epoch: 02 February)

Event Time Altitude Azimuth Distance (km) Brightness Sun altitude
Exits shadow 05:23:12 25° 216° (SW) 1,356 ? -21.5°
Maximum altitude 05:26:02 86° 302° (WNW) 691 ? -21.0°
Drops below altitude 10° 05:30:58 10° 34° (NNE) 2,154 ? -20.1°
Sets 05:33:20 0° 35° (NE) 3,080 ? -19.7°
